Starlink 30876

operational
NORAD ID: 58404 Int'l Des: 2023-180 Owner: SPXS Country: US Constellation: starlink
LEOCIRCULAR

Über Starlink 30876

Beschreibung wird geladen...

Live-Position

3D-Globus wird geladen...

Nächste Überflüge

Höhenverlauf

Altitude vs Time

uPlot chart will show altitude changes over time

Zweizeiliger Elementsatz

1 58404U 23180C 25300.82091456 .00000666 00000-0 64385-4 0 9998
2 58404 43.0035 58.3882 0001437 271.3322 88.7356 15.02539666107599
Epoch: 27. Okt. 2025 • Age: 15 hours

Aktueller Status

Höhe 560.5 km
Geschwindigkeit 7.59 km/s
Subsatellitenpunkt 30.16°N, 0.06°W
Startdatum 22. Nov. 2023
Alter 1.9 years
Typ internet

Technische Details

Klassifizierung Payload
Masse 730.00 kg
Trockenmasse 700.00 kg
Gesamtmasse 730.00 kg
Länge 0.30 m
Durchmesser 4.10 m
Spannweite 29.00 m
Form Box + pan
Hersteller SPXS
Bus-Typ Starlink V2M
Phasenstatus In Orbit
Besitzer/Staat SPXS/US

Große Konstellationen

Loading constellations...